Location: Rounton
(54.4000°N, 1.3500°W)
Time: 15:00:13
(UTC+00:00)

Transit 2A - Pass Details

Date: 07 December 2021
Orbit: 591 x 967 km, 66.7° (Epoch: 21 January)

Event Time Altitude Azimuth Distance (km) Brightness Sun altitude
Rises 09:01:17 0° 315° (NW) 3,664 8.8 4.2°
Reaches altitude 10° 09:04:17 10° 304° (WNW) 2,715 8.3 4.5°
Maximum altitude 09:09:22 26° 251° (WSW) 1,795 7.8 5.0°
Drops below altitude 10° 09:14:19 10° 198° (SSW) 2,623 9.3 5.4°
Sets 09:17:09 0° 186° (S) 3,515 10.2 5.7°
